www.pogodaiklimat.ru

Погода и климат >> Архив погоды >> Узбекистан >> Ташкент


АРХИВ ПОГОДЫ в Ташкенте

Время (UTC), дата Ветер
(напр.,м/с)
 
Видим.   Явления Облачность Т
(С)
Тd
(С)
f
(%)
Тe
(С)
Тes
(С)
Комфортность P
(гПа)
Po
(гПа)
Тmin
(С)
Tmax
(С)
R
(мм)
R24
(мм)
S
(см)
12 14.08 СЗ 2 10 км ясно +30.9 -0.9 13 +28 +32 жарко 1005.7 952.4
15 14.08 ЮЗ 1 10 км ясно +25.6 +4.6 26 +25 +25 комфорт 1006.5 952.3 +31.4
18 14.08 В 1 10 км ясно +19.6 +8.5 49 +22 +22 комфорт 1005.3 952.0 +31.4
21 14.08 В 1 10 км ясно +16.3 +6.5 52 +17 +17 холодно 1008.0 952.0
00 15.08 СВ 1 10 км ясно +15.2 +6.5 56 +16 +16 прохладно 1007.9 951.7
03 15.08 штиль 0 10 км ясно +24.4 +8.1 35 +25 +31 комфорт 1007.2 952.7
06 15.08 Ю 1 10 км ясно +30.7 +1.7 16 +28 +46 жарко 1006.5 953.1 +14.8
09 15.08 ЮЗ 1 10 км ясно +32.5 +0.6 13 +29 +47 жарко 1005.8 952.7
12 15.08 Ю 1 10 км ясно +32.7 +0.6 13 +30 +34 жарко 1004.9 951.9
15 15.08 З 1 10 км ясно +26.2 +6.8 29 +26 +26 жарко 1006.0 951.9 +33.3
18 15.08 ЮВ 1 10 км ясно +21.2 +7.7 42 +22 +22 комфорт 1006.3 951.4 +33.3
21 15.08 В 1 10 км ясно +18.3 +5.6 43 +20 +20 по сезону 1006.3 950.8
00 16.08 В 2 50 км ясно +16.6 +5.1 47 +17 +17 прохладно 1006.8 950.9
03 16.08 В 2 50 км 3/0
[Ac cast]
+24.8 +5.3 28 +24 +28 комфорт 1005.5 951.2
06 16.08 З 2 10 км 3/0
[Ac trans]
+31.6 +2.1 15 +29 +41 жарко 1004.1 951.0 +16.1
09 16.08 З 2 10 км ясно +32.3 +1.9 14 +29 +44 жарко 1004.4 951.4
12 16.08 З 2 50 км ясно +31.6 +1.3 14 +29 +32 жарко 1004.5 951.4
15 16.08 З 2 10 км ясно +27.0 +5.3 25 +26 +26 жарко 1006.2 952.2 +33.5
18 16.08 ЮЗ 1 10 км ясно +22.8 +9.5 43 +24 +24 комфорт 1007.1 952.4 +33.5
21 16.08 В 1 10 км ясно +20.2 +7.3 43 +22 +22 комфорт 1007.6 952.4
00 17.08 ЮВ 1 50 км ясно +20.3 +4.6 36 +22 +22 комфорт 1007.8 952.6
03 17.08 В 1 50 км 3/0
[Ac cast]
+20.5 +8.2 45 +23 +27 комфорт 1009.5 954.2
06 17.08 Ю 1 10 км 3/3 600 м
[Cu hum]
+27.0 +9.0 32 +27 +40 жарко 1009.6 955.5 +19.0
09 17.08 З 2 10 км 4/4 600 м
[Cu med, cong]
+30.1 +4.3 19 +28 +37 жарко 1009.7 956.1
12 17.08 З 2 10 км 4/4 600 м
[Cu hum]
+30.8 +1.9 16 +28 +30 жарко 1009.7 956.1
15 17.08 ЮЗ 1 10 км 3/0
[Ac lent]
+24.3 +3.2 25 +24 +24 комфорт 1011.7 956.9 +31.4
18 17.08 ЮВ 1 10 км ясно +21.5 +8.4 43 +23 +23 комфорт 1012.9 957.6 +31.4
21 17.08 В 1 10 км ясно +17.4 +7.0 50 +18 +18 прохладно 1013.0 956.9
00 18.08 В 1 50 км ясно +16.4 +5.6 49 +17 +17 по сезону 1013.1 956.8
03 18.08 В 1 10 км ясно +23.9 +5.6 31 +24 +29 комфорт 1011.9 957.1
06 18.08 В 2 50 км ясно +29.0 +5.8 23 +28 +43 жарко 1010.9 957.0 +16.2
09 18.08 СЗ 1 10 км 9/0
[Ac As Ci fib]
+32.0 +2.3 15 +29 +42 жарко 1009.6 956.3
12 18.08 З 2 10 км 3/0
[Ci fib]
+32.3 +2.3 15 +29 +33 жарко 1008.2 955.0
15 18.08 З 1 10 км 9/0
[Ac lent Ci fib]
+25.8 +7.3 31 +26 +26 жарко 1008.9 954.6 +32.8
18 18.08 штиль 0 10 км 9/0
[Ci]
+21.7 +7.4 40 +23 +23 комфорт 1009.2 954.2 +32.8
21 18.08 В 1 10 км 4/0
[Ci fib]
+18.9 +6.2 43 +20 +20 по сезону 1009.4 953.8
00 19.08 В 1 50 км ясно +17.0 +8.0 55 +18 +18 по сезону 1010.0 954.0
03 19.08 Ю 2 10 км 5/0
[Ci]
+22.0 +8.6 42 +23 +27 комфорт 1010.2 955.1
06 19.08 штиль 0 10 км 8/0
[Cc]
+28.6 +7.6 27 +28 +45 жарко 1009.3 955.5 +16.7
09 19.08 ЮЗ 1 10 км 8/0
[Ci]
+31.8 +6.8 21 +30 +44 жарко 1008.4 955.2
12 19.08 З 2 10 км 9/8 1000 м
[Sc Ac und]
+30.3 +4.8 20 +28 +29 жарко 1008.8 955.3
15 19.08 штиль 0 10 км 9/6 1000 м
[Sc Ac und]
+26.4 +8.0 31 +26 +26 жарко 1009.4 955.2 +32.6
18 19.08 СВ 1 10 км 9/9 1000 м
[Sc]
+23.3 +11.7 48 +26 +26 жарко 1009.9 955.2 +32.6
21 19.08 В 1 10 км 8/0
[Ac As Ci]
+21.1 +10.5 51 +23 +23 комфорт 1010.2 955.0
00 20.08 В 1 10 км 9/4 1000 м
[Sc Ac lent Ci]
+19.3 +10.4 56 +21 +21 комфорт 1010.5 955.0
03 20.08 ЮВ 1 10 км 9/4 1000 м
[Cu hum Ac cast Ci sp]
+22.9 +10.6 46 +25 +27 комфорт 1010.6 955.8
06 20.08 ЮЗ 1 10 км 8/1 1000 м
[Cu hum Ac trans Ci]
+28.9 +7.4 26 +28 +38 жарко 1010.4 956.5 +19.1
09 20.08 Ю 2 10 км 4/0
[Ac trans Ci]
+30.7 +6.8 22 +29 +41 жарко 1009.8 956.3
12 20.08 З 1 10 км ясно +31.6 +7.6 22 +30 +34 жарко 1009.3 956.0
15 20.08 Ю 2 10 км ясно +26.8 +11.4 38 +28 +28 жарко 1010.0 955.9 +33.0
18 20.08 В 1 10 км ясно +21.8 +13.3 58 +24 +24 комфорт 1011.2 956.2 +33.0
21 20.08 В 1 10 км ясно +18.7 +8.2 50 +20 +20 по сезону 1011.9 956.2
00 21.08 В 1 50 км ясно +17.2 +10.0 63 +18 +18 по сезону 1011.2 955.3
03 21.08 штиль 0 10 км ясно +23.4 +9.4 41 +25 +30 комфорт 1010.6 955.9
06 21.08 ЮЗ 1 10 км ясно +28.8 +7.8 27 +28 +46 жарко 1009.8 956.0 +16.5
09 21.08 З 1 10 км ясно +31.9 +5.6 19 +30 +46 жарко 1008.3 955.1

 

Местоположение метеостанции Ташкент (Ташкентская область, Узбекистан): широта 41.27 долгота 69.27 высота над уровнем моря 466 м.

В архиве по умолчанию представлена погода в Ташкенте за последнюю неделю. Архивные данные за месяц целиком и за предыдущие месяцы, начиная с января 2011 года, Вы можете получить, выбрав интересующий диапазон дат из раскрывающегося списка и нажав кнопку "Ввод!".

Внимание! Время в таблицах - всемирное. Для получения местного времени необходимо прибавить поправку, которая в Ташкенте равна 5 ч.

Смотрите также архив погоды в соседних городах и на ближайших метеорологических станциях:

Погода в Каунчи (Ташкентская область, Узбекистан) (31 км)
Погода в Туябугузе (Ташкентская область, Узбекистан) (37 км)
Погода в Келесе (Южно-Казахстанская область, Казахстан) (38 км)
Погода в Красноярской (Южно-Казахстанская область, Казахстан) (54 км)
Погода в Казыгурте (Южно-Казахстанская область, Казахстан) (55 км)
Погода в Дуканте (Ташкентская область, Узбекистан) (68 км)
Погода в Чимгане (Ташкентская область, Узбекистан) (70 км)
Погода в Сырдарье (Сырдарьинская область, Узбекистан) (70 км)
Погода в Ангрене (Ташкентская область, Узбекистан) (82 км)
Погода в Жетысае (Южно-Казахстанская область, Казахстан) (96 км)

Пояснения к столбцам:

Ветер - указаны скорость ветра в м/с - средняя за 10 мин, порывы в срок и между сроками (в фигурных скобках) и направление, откуда дует ветер: С - северный, СВ - северо-восточный, В - восточный, ЮВ - юго-восточный, Ю - южный, ЮЗ - юго-западный, З - западный, СЗ - северо-западный.
Видимость - горизонтальная дальность видимости в метрах или километрах. При видимости от 1 до 10 км при отсутствии осадков обычно наблюдается дымка, при ухудшении видимости до 1 км и менее - туман. В сухую погоду видимость может ухудшаться дымом, пылью или мглою.
Явления - указаны атмосферные явления, наблюдавшиеся в срок или в последний час перед сроком; фигурными скобками обозначены явления, наблюдавшиеся между сроками (за 1-3 часа до срока); квадратными скобками обозначены град или гололедные отложения с указанием их диаметра в мм.
Облачность - указаны через наклонную черту общая и нижняя облачность в баллах и высота нижней границы облаков в метрах; квадратными скобками обозначены формы облаков: Ci - перистые, Cs - перисто-слоистые, Cc - перисто-кучевые, Ac - высококучевые, As - высокослоистые, Sc - слоисто-кучевые, Ns - слоисто-дождевые, Cu - кучевые, Cb - кучево-дождевые. Подробнее классификацию облаков см. в Атласе облаков (PDF).
T - Температура воздуха - температура, измеренная на высоте 2 м над землей.
Td - Температура точки росы - температура, при понижении до которой содержащийся в воздухе водяной пар достигнет насыщения.
f - Относительная влажность воздуха - влажноcть воздуха, измеренная на высоте 2 м над землей.
Te - Эффективная температура - температура, которую ощущает одетый по сезону человек в тени. Характеристика душности погоды. При расчете учитывается влияние влажности воздуха и скорости ветра на теплоощущения человека.
Tes - Эффективная температура на солнце - температура, которую ощущает человек, с поправкой на солнечный нагрев. Характеристика знойности погоды. Зависит от высоты солнца над горизонтом, облачности и скорости ветра. Ночью, в пасмурную погоду, а также при ветре 12 м/с и более поправка равна нулю.
P - Атмосферное давление - приведенное к уровню моря атмосферное давление.
Po - Атмосферное давление - измеренное на уровне метеостанции атмосферное давление.
Tmin - Минимальная температура - минимум температуры воздуха на высоте 2 м над землей.
Tmax - Максимальная температура - максимум температуры воздуха на высоте 2 м над землей.
R - Количество осадков - Количество выпавших осадков за период времени, мм. При наведении курсора мыши на число - период времени, за который выпало указанное количество осадков.
R24 - Количество осадков - Количество выпавших осадков за 24 часа, мм.
S - Снежный покров - Высота снежного покрова, см. При наведении курсора мыши на число - состояние снежного покрова и степень покрытия местности в баллах.